Terminal Aerodrome Forecast
Issued by NWS Bismarck, ND

Home | Current Version | Previous Version | Graphics & Text | Print | Product List | Glossary On
Versions: 1 2 3 4 5 6 7 8 9 10 11 12 13 14 15 16 17 18 19
000
FTUS43 KBIS 172000 AAA
TAFBIS
TAF AMD
KBIS 172049Z 1721/1818 15008KT P6SM SCT014
      TEMPO 1722/1801 BKN014
     FM180100 13007KT P6SM -SN OVC012=

USA.gov is the U.S. government's official web portal to all federal, state and local government web resources and services.